[[{"header":{"parameterUnit":"m.s-1","parameterCategory":1,"la1":30.2991,"la2":30.254,"lo1":-89.0895,"lo2":-89.0444,"dy":0.0017,"dx":0.0017,"nx":28,"ny":28,"refTime":"2024-10-07T09:00:00:Z","depth":0,"parameterNumber":2,"parameterNumberName":"U-component_of_WINDS"},"data":[0,0,0,0,0,0,0,0,0,0,0,0,0,0,0,0,0,0,0,0,0,0,0,0,0,0,0,0,0,0,0,0,0,0,0,0,0,0,0,0,0,0,0,0,0,0,0,0,0,0,0,0,0,0,0,0,0,0,-1.6564,-1.6565,0,-1.6694,-1.6695,-1.6697,-1.668,-1.6677,-1.6675,-1.6673,-1.6811,-1.6816,-1.6822,0,0,0,0,0,0,0,0,0,0,0,0,0,-1.6305,-1.631,-1.6564,-1.6565,-1.6567,-1.6693,-1.6695,-1.6697,-1.668,-1.6677,-1.6675,-1.6672,-1.6809,-1.6815,-1.6822,0,0,0,0,0,0,0,0,0,0,0,0,0,-1.6425,-1.6311,-1.6564,-1.6574,-1.6576,-1.6693,-1.6695,-1.6698,-1.668,-1.6677,-1.6674,-1.6671,-1.6807,-1.6815,-1.6823,-1.694,0,0,-1.6849,-1.6853,0,0,0,0,0,0,0,0,-1.6418,-1.6434,-1.6571,-1.6573,-1.6576,-1.6667,-1.6654,-1.6779,-1.6681,-1.6641,-1.6673,-1.6669,-1.6766,-1.6777,-1.6809,-1.6946,-1.6952,-1.685,-1.6855,-1.6859,-1.6861,0,0,0,0,0,0,0,-1.6409,-1.6428,-1.6615,-1.6573,-1.6576,-1.6573,-1.6586,-1.6678,-1.672,-1.6644,-1.6643,-1.6659,-1.6767,-1.6801,-1.6812,-1.6954,-1.685,-1.6857,-1.6862,-1.6866,-1.7195,-1.7199,0,0,0,0,0,0,-1.6398,-1.6422,-1.6611,-1.6619,-1.6487,-1.658,-1.6595,-1.6641,-1.6719,-1.6728,-1.6661,-1.6657,-1.6788,-1.6802,-1.6817,-1.696,-1.6859,-1.6867,-1.6871,-1.7192,-1.7196,-1.72,0,0,0,0,0,0,-1.6392,-1.6415,-1.6606,-1.652,-1.6544,-1.6588,-1.664,-1.6645,-1.668,-1.6732,-1.6739,-1.6688,-1.6786,-1.6805,-1.6909,-1.6964,-1.687,-1.6878,-1.7187,-1.7193,-1.7198,-1.7246,0,0,0,0,0,0,-1.6385,-1.6413,-1.6457,-1.6521,-1.6549,-1.6696,-1.6643,-1.665,-1.6694,-1.669,-1.6759,-1.6768,-1.6785,-1.6897,-1.6918,-1.6974,-1.6885,-1.7183,-1.719,-1.7196,-1.724,-1.7253,-1.7264,0,0,0,0,0,-1.6376,-1.6466,-1.646,-1.6483,-1.6605,-1.6699,-1.6715,-1.6731,-1.6698,-1.6744,-1.6777,-1.6765,-1.6954,-1.6908,-1.6931,-1.6991,-1.7179,-1.7188,-1.7196,-1.7235,-1.725,-1.7263,0,0,0,0,0,0,-1.6409,-1.6475,-1.6468,-1.6582,-1.6635,-1.6695,-1.6753,-1.6747,-1.6812,-1.6806,-1.6825,-1.6841,-1.6947,-1.6979,-1.6926,-1.7109,-1.7063,-1.7076,-1.7084,-1.7099,-1.7111,-1.7102,-1.6892,0,0,0,0,0,-1.6429,-1.6499,-1.6553,-1.6648,-1.6675,-1.6709,-1.6751,-1.6759,-1.6815,-1.6838,-1.6879,-1.6935,-1.7007,-1.7055,-1.7124,-1.7244,-1.726,-1.7297,-1.7308,-1.7318,-1.733,-1.7397,-1.7415,-1.7227,-1.7227,-1.7227,0,0,-1.6473,-1.6517,-1.656,-1.6656,-1.6698,-1.6771,-1.6729,-1.6808,-1.6863,-1.6851,-1.6952,-1.6984,-1.7048,-1.7161,-1.7213,-1.7191,-1.7385,-1.7328,-1.7335,-1.7343,-1.7407,-1.7425,-1.7441,-1.7233,-1.7232,-1.7231,0,0,-1.6589,-1.6629,-1.6713,-1.6756,-1.6819,-1.6841,-1.6861,-1.6923,-1.6944,-1.7045,-1.7038,-1.7104,-1.7227,-1.7274,-1.7313,-1.7446,-1.7439,-1.7468,-1.7531,-1.7596,-1.7611,-1.7624,-1.7674,-1.7691,-1.748,-1.748,-1.748,0,-1.6636,-1.6744,-1.6758,-1.6838,-1.6881,-1.6871,-1.6957,-1.6998,-1.7082,-1.7112,-1.7086,-1.7241,-1.7283,-1.7408,-1.744,-1.7472,-1.7497,-1.7462,-1.7608,-1.7621,-1.7634,-1.7681,-1.7699,-1.7483,-1.7483,-1.7482,-1.7482,0,-1.6799,-1.6874,-1.6935,-1.7014,-1.7064,-1.7147,-1.7174,-1.7222,-1.7226,-1.7251,-1.7355,-1.7405,-1.7485,-1.7514,-1.7519,-1.764,-1.7625,-1.7603,-1.7557,-1.7655,-1.77,-1.7718,-1.7488,-1.7487,-1.7486,-1.7485,0,0,-1.6943,-1.7027,-1.7049,-1.7086,-1.7154,-1.7214,-1.7296,-1.7372,-1.7415,-1.7472,-1.7543,-1.7647,-1.7627,-1.7672,-1.7682,-1.7739,-1.7843,-1.771,-1.7712,-1.7735,-1.7981,-1.7999,-1.8019,-1.7837,-1.7841,-1.7843,-1.7977,0,-1.7067,-1.7212,-1.7226,-1.7357,-1.7427,-1.7419,-1.7491,-1.7541,-1.7567,-1.7632,-1.766,-1.7735,-1.7702,-1.7729,-1.7785,-1.7819,-1.7893,-1.7809,-1.7906,-1.7909,-1.7892,-1.8043,-1.8062,-1.8185,-1.7994,-1.7997,-1.7999,0,-1.7233,-1.7294,-1.7431,-1.749,-1.752,-1.7585,-1.7656,-1.7717,-1.7775,-1.779,-1.7839,-1.7841,-1.7928,-1.7877,-1.7997,-1.7939,-1.798,-1.8002,-1.8007,-1.8019,-1.7962,-1.8061,-1.8224,-1.8244,-1.8026,-1.8024,-1.8022,0,-1.7326,-1.7443,-1.754,-1.7571,-1.7642,-1.7687,-1.7719,-1.7773,-1.7819,-1.7881,-1.7911,-1.7983,-1.8023,-1.8079,-1.8101,-1.8062,-1.8221,-1.8172,-1.8238,-1.8238,-1.8274,-1.8272,-1.8449,-1.8296,-1.8296,-1.8295,-1.8295,0,-1.7466,-1.755,-1.7583,-1.7643,-1.7738,-1.7753,-1.7847,-1.7877,-1.7925,-1.7992,-1.7989,-1.8052,-1.8076,-1.8143,-1.816,-1.8259,-1.8276,-1.8292,-1.8296,-1.8294,-1.8292,-1.8322,-1.8315,-1.83,-1.8299,-1.8298,-1.8297,0,-1.7587,-1.7612,-1.7718,-1.7775,-1.7792,-1.786,-1.791,-1.7969,-1.7992,-1.8077,-1.8098,-1.8136,-1.8215,-1.8242,-1.8338,-1.835,-1.8465,-1.846,-1.8445,-1.8446,-1.8512,-1.8506,-1.8716,-1.8745,-1.8571,-1.8573,-1.8574,0,-1.7676,-1.7741,-1.7805,-1.7849,-1.7882,-1.7952,-1.7998,-1.8015,-1.8063,-1.8133,-1.8184,-1.8262,-1.8326,-1.8453,-1.849,-1.8564,-1.8563,-1.8631,-1.8574,-1.857,-1.8566,-1.8563,-1.8571,-1.8643,-1.8645,-1.8646,-1.8647,0,-1.7831,-1.784,-1.7905,-1.7974,-1.8028,-1.8085,-1.8139,-1.8175,-1.8201,-1.8255,-1.8335,-1.8384,-1.8481,-1.8559,-1.8634,-1.8669,-1.8664,-1.8664,-1.8684,-1.8684,-1.8673,-1.8681,-1.8477,-1.866,-1.8659,-1.8658,-1.8657,-1.8657,-1.794,-1.7998,-1.8052,-1.8125,-1.8167,-1.8217,-1.8276,-1.8306,-1.8373,-1.8452,-1.8458,-1.8545,-1.8602,-1.8702,-1.8739,-1.8809,-1.879,-1.8818,-1.8825,-1.8832,-1.8838,-1.8659,-1.8822,-1.8822,-1.8821,-1.8821,-1.8821,0,-1.8097,-1.8131,-1.8197,-1.8273,-1.833,-1.8317,-1.8377,-1.8426,-1.8502,-1.8554,-1.8616,-1.8709,-1.8784,-1.8827,-1.8903,-1.895,-1.895,-1.897,-1.8968,-1.8976,-1.885,-1.8826,-1.8969,-1.8969,-1.8969,-1.8969,-1.8969,-1.8969,-1.8186,-1.8283,-1.8298,-1.8416,-1.845,-1.8534,-1.8569,-1.8616,-1.8658,-1.8761,-1.8823,-1.8849,-1.8898,-1.8977,-1.9047,-1.9057,-1.9087,-1.9109,-1.9118,-1.9,-1.8985,-1.8971,-1.8949,-1.9115,-1.9115,-1.9239,-1.924,-1.9241]},{"header":{"parameterUnit":"m.s-1","parameterCategory":1,"la1":30.2991,"la2":30.254,"lo1":-89.0895,"lo2":-89.0444,"dy":0.0017,"dx":0.0017,"nx":28,"ny":28,"refTime":"2024-10-07T09:00:00:Z","depth":0,"parameterNumber":3,"parameterNumberName":"V-component_of_WINDS"},"data":[0,0,0,0,0,0,0,0,0,0,0,0,0,0,0,0,0,0,0,0,0,0,0,0,0,0,0,0,0,0,0,0,0,0,0,0,0,0,0,0,0,0,0,0,0,0,0,0,0,0,0,0,0,0,0,0,0,0,-5.505,-5.5051,0,-5.5086,-5.5087,-5.5087,-5.4983,-5.498,-5.4977,-5.4974,-5.5007,-5.501,-5.5014,0,0,0,0,0,0,0,0,0,0,0,0,0,-5.4887,-5.4891,-5.505,-5.5051,-5.5051,-5.5086,-5.5087,-5.5087,-5.4983,-5.498,-5.4976,-5.4972,-5.5005,-5.501,-5.5014,0,0,0,0,0,0,0,0,0,0,0,0,0,-5.4944,-5.4892,-5.505,-5.5004,-5.5,-5.5086,-5.5087,-5.5087,-5.4984,-5.4979,-5.4975,-5.497,-5.5004,-5.5009,-5.5015,-5.5146,0,0,-5.5033,-5.5035,0,0,0,0,0,0,0,0,-5.4941,-5.495,-5.501,-5.5007,-5.5003,-5.5025,-5.5041,-5.5107,-5.4986,-5.499,-5.4973,-5.4968,-5.5016,-5.5021,-5.5038,-5.5148,-5.5149,-5.5033,-5.5037,-5.5039,-5.5041,0,0,0,0,0,0,0,-5.4937,-5.4948,-5.5064,-5.5011,-5.5007,-5.498,-5.4982,-5.5053,-5.5029,-5.4989,-5.4982,-5.4988,-5.5013,-5.5033,-5.5038,-5.515,-5.5033,-5.5038,-5.5042,-5.5044,-5.5368,-5.5373,0,0,0,0,0,0,-5.494,-5.4945,-5.5063,-5.5065,-5.496,-5.4986,-5.499,-5.5023,-5.5028,-5.5025,-5.4992,-5.4983,-5.5025,-5.5031,-5.5039,-5.5192,-5.5039,-5.5045,-5.5048,-5.5363,-5.537,-5.5375,0,0,0,0,0,0,-5.4937,-5.4951,-5.5062,-5.5003,-5.5015,-5.4994,-5.5033,-5.5026,-5.5045,-5.503,-5.5025,-5.5016,-5.5022,-5.5031,-5.512,-5.5192,-5.5047,-5.5052,-5.5357,-5.5365,-5.5372,-5.5501,0,0,0,0,0,0,-5.4933,-5.4951,-5.5002,-5.5005,-5.5019,-5.5145,-5.5037,-5.503,-5.5056,-5.5044,-5.5052,-5.5048,-5.5018,-5.5112,-5.5126,-5.5197,-5.5057,-5.5351,-5.5361,-5.537,-5.5491,-5.5513,-5.5531,0,0,0,0,0,-5.4927,-5.5036,-5.5005,-5.502,-5.5082,-5.5149,-5.5156,-5.5121,-5.5062,-5.5112,-5.5103,-5.5048,-5.5182,-5.5123,-5.5137,-5.5211,-5.5346,-5.5358,-5.5369,-5.5482,-5.5508,-5.5531,0,0,0,0,0,0,-5.504,-5.5036,-5.5001,-5.5115,-5.5133,-5.5131,-5.5193,-5.5151,-5.5185,-5.5173,-5.5126,-5.5129,-5.5227,-5.5228,-5.5161,-5.5338,-5.5254,-5.5269,-5.5334,-5.5359,-5.5379,-5.5377,-5.5062,0,0,0,0,0,-5.5078,-5.5134,-5.5127,-5.5227,-5.5239,-5.5215,-5.5243,-5.5214,-5.523,-5.5237,-5.5234,-5.5251,-5.5297,-5.5328,-5.5369,-5.549,-5.549,-5.5548,-5.5569,-5.5585,-5.5599,-5.5662,-5.5688,-5.5413,-5.5413,-5.5413,0,0,-5.5157,-5.5162,-5.52,-5.525,-5.5261,-5.5319,-5.5222,-5.5287,-5.5329,-5.5247,-5.5332,-5.533,-5.5346,-5.5452,-5.5498,-5.5456,-5.5675,-5.56,-5.5614,-5.5618,-5.5677,-5.5703,-5.5726,-5.5421,-5.542,-5.5418,0,0,-5.5331,-5.5341,-5.5426,-5.5439,-5.5457,-5.5441,-5.5461,-5.5466,-5.5462,-5.5547,-5.5486,-5.5535,-5.5615,-5.5629,-5.5646,-5.5825,-5.5776,-5.584,-5.5946,-5.6008,-5.603,-5.6049,-5.6112,-5.6136,-5.5853,-5.5854,-5.5854,0,-5.5427,-5.5513,-5.5474,-5.5544,-5.5568,-5.5497,-5.5582,-5.5596,-5.5626,-5.5643,-5.5595,-5.5694,-5.57,-5.5808,-5.5852,-5.5868,-5.5889,-5.5839,-5.603,-5.6049,-5.6066,-5.6126,-5.615,-5.5861,-5.586,-5.586,-5.5859,0,-5.563,-5.569,-5.5756,-5.5789,-5.582,-5.5897,-5.5868,-5.5904,-5.5872,-5.586,-5.5947,-5.5951,-5.5992,-5.6016,-5.5985,-5.6119,-5.6092,-5.6038,-5.5952,-5.61,-5.6156,-5.6178,-5.5872,-5.5869,-5.5867,-5.5865,0,0,-5.5876,-5.5886,-5.5911,-5.5925,-5.594,-5.5985,-5.6058,-5.6099,-5.613,-5.6153,-5.6213,-5.6282,-5.6232,-5.6252,-5.6222,-5.6277,-5.6418,-5.6216,-5.6215,-5.6253,-5.6565,-5.6606,-5.6633,-5.6386,-5.639,-5.6393,-5.6564,0,-5.6047,-5.6174,-5.6141,-5.6267,-5.6321,-5.6255,-5.6318,-5.6334,-5.6324,-5.6368,-5.6357,-5.6407,-5.6337,-5.6349,-5.64,-5.639,-5.648,-5.6377,-5.6439,-5.6442,-5.6438,-5.6662,-5.6706,-5.6867,-5.6585,-5.6589,-5.6592,0,-5.6264,-5.6297,-5.6429,-5.6434,-5.6456,-5.6514,-5.6548,-5.6592,-5.6607,-5.6596,-5.6619,-5.6578,-5.6648,-5.6563,-5.6659,-5.659,-5.6613,-5.6612,-5.6617,-5.6621,-5.6526,-5.6672,-5.6917,-5.6941,-5.6626,-5.6623,-5.662,0,-5.6429,-5.6507,-5.6595,-5.6609,-5.6618,-5.666,-5.6665,-5.6676,-5.6703,-5.6733,-5.675,-5.6787,-5.6808,-5.6837,-5.6807,-5.6747,-5.6907,-5.6819,-5.6899,-5.69,-5.6936,-5.6934,-5.7188,-5.6952,-5.6951,-5.6951,-5.695,0,-5.6624,-5.6707,-5.667,-5.6725,-5.6815,-5.6776,-5.6866,-5.6864,-5.6874,-5.6926,-5.687,-5.6919,-5.6876,-5.6922,-5.6898,-5.6981,-5.6991,-5.6983,-5.6976,-5.6988,-5.6989,-5.7003,-5.6991,-5.6957,-5.6956,-5.6955,-5.6954,0,-5.6825,-5.6803,-5.6896,-5.6897,-5.6899,-5.6966,-5.6966,-5.7015,-5.7002,-5.7068,-5.7081,-5.706,-5.7111,-5.7083,-5.7135,-5.7119,-5.7227,-5.7204,-5.7222,-5.7216,-5.7298,-5.7291,-5.7569,-5.7603,-5.7346,-5.7348,-5.735,0,-5.695,-5.7013,-5.7021,-5.7052,-5.7062,-5.7113,-5.714,-5.7104,-5.7134,-5.7156,-5.7203,-5.7249,-5.7284,-5.7367,-5.7356,-5.7395,-5.7373,-5.7467,-5.7378,-5.7388,-5.7374,-5.737,-5.7376,-5.7485,-5.7488,-5.7491,-5.7493,0,-5.7175,-5.7162,-5.7204,-5.7243,-5.7278,-5.7306,-5.7329,-5.7358,-5.7321,-5.7358,-5.741,-5.7437,-5.749,-5.7536,-5.757,-5.7573,-5.7528,-5.7521,-5.7542,-5.7555,-5.7563,-5.7559,-5.7271,-5.7515,-5.7513,-5.7511,-5.751,-5.7509,-5.7342,-5.7394,-5.7408,-5.7457,-5.7471,-5.7495,-5.7541,-5.7534,-5.7577,-5.7618,-5.7594,-5.7654,-5.7667,-5.7707,-5.7717,-5.7763,-5.7725,-5.7755,-5.7762,-5.777,-5.7781,-5.7556,-5.7769,-5.7768,-5.7768,-5.7767,-5.7766,0,-5.7563,-5.7569,-5.7615,-5.765,-5.7688,-5.7643,-5.7666,-5.7701,-5.7755,-5.7772,-5.7807,-5.7866,-5.7911,-5.7903,-5.7943,-5.7981,-5.7961,-5.7992,-5.7989,-5.7991,-5.7813,-5.7791,-5.8008,-5.8008,-5.8008,-5.8008,-5.8008,-5.8008,-5.7683,-5.777,-5.7758,-5.785,-5.7854,-5.7914,-5.7932,-5.7952,-5.7965,-5.8034,-5.8071,-5.8066,-5.8072,-5.8112,-5.815,-5.8147,-5.8164,-5.8204,-5.8192,-5.8027,-5.8003,-5.798,-5.7959,-5.8208,-5.8208,-5.8365,-5.8367,-5.8368]}]]